Portada
METAR-TAF:

METAR-TAF

Aeroports :

Emerald, Austràlia

latitud: 23-34-03S, longitud: 148-10-45E, altitud: 190 m

Observació

L'informe es va fer fa 51 minuts, a les 05:00 UTC
Vent 9 kt del Nord-Est
Temperatura 36°C
Humitat 29%
Pressió 1007 hPa
Visibilitat 10 km o més
Núvols disperses a una alçada de 7200 ft

METAR: YEML 120500Z AUTO 05009KT 9999 // SCT072 36/15 Q1007

Hora: 15:51 (05:51 UTC)


TAF: manca

Observacions i pronòstics meteorològics de més de 4000 aeroports (METAR i TAF).

Les estacions disponibles són els punts grocs i vermells al mapa.

Posi el ratolí al punt desitjat per veure el nom de l'estació.

Feu clic per veure les observacions i els pronòstics meteorològics.

Per canviar el mapa: feu clic els botons verds amb una creu de color negre per apropar; al botó verd amb un guió per allunyar la imatge; o en les fletxes verdes per a mapes adjacents.


METAR-TAF: